,

(GMT )
Banff

Weather History for CWZG - December, 2012

Change the Weather History Date:

Sunday, December 2, 2012

  Actual Average Record
Temperature  
Mean Temperature 30 °F -  
Max Temperature 33 °F - - ()
Min Temperature 26 °F - - ()
Degree Days  
Heating Degree Days 36    
Moisture  
Dew Point 24 °F    
Average Humidity 83    
Maximum Humidity 92    
Minimum Humidity 61    
Precipitation  
Precipitation 0.25 in - - ()
Sea Level Pressure  
Sea Level Pressure 29.39 in    
Wind  
Wind Speed 5 mph ()    
Max Wind Speed 9 mph    
Max Gust Speed 17 mph    
T = Trace of Precipitation, MM = Missing Value Source: Averaged Metar Reports

Daily Weather History Graph

Daily Weather History Graph

Search for Another Location

Airport or City:

Trip Planner

Search our weather history database for the weather conditions in past years. The results will help you decide how hot, cold, wet, or windy it might be!

Date:

Astronomy

Dec. 02, 2012 Rise Set
Actual Time 8:26 AM MST 4:37 PM MST
Civil Twilight 7:47 AM MST 5:16 PM MST
Nautical Twilight 7:05 AM MST 5:58 PM MST
Astronomical Twilight 6:25 AM MST 6:38 PM MST
Moon 8:41 PM MST (12/2) 11:08 AM MST (12/2)
Length of Visible Light 9h 28m
Length of Day
8h 10m
Waning Gibbous, 85% of the Moon is Illuminated
Dec 2
Waning Gibbous
Dec 6
Last Quarter
Dec 13
New
Dec 19
First Quarter
Dec 28
Full

Hourly Weather History & Observations

Time (MST) Temp. Windchill Dew Point Humidity Pressure Visibility Wind Dir Wind Speed Gust Speed Precip Events Conditions
12:00 AM 33.4 °F 29.1 °F 25.0 °F 71% 29.55 in - WSW 4.6 mph - N/A   Unknown
1:00 AM 31.8 °F 25.4 °F 24.4 °F 74% 29.55 in - SSW 6.9 mph - N/A   Unknown
2:00 AM 28.6 °F 24.8 °F 22.6 °F 78% 29.52 in - SW 3.5 mph - N/A   Unknown
3:00 AM 27.5 °F 22.2 °F 22.1 °F 80% 29.50 in - WSW 4.6 mph - N/A   Unknown
4:00 AM 28.2 °F 24.4 °F 22.8 °F 80% 29.47 in - WSW 3.5 mph - N/A   Unknown
5:00 AM 28.2 °F 22.0 °F 22.6 °F 80% 29.41 in - SW 5.8 mph - N/A   Unknown
6:00 AM 27.0 °F 20.5 °F 23.7 °F 88% 29.40 in - SW 5.8 mph - N/A   Unknown
7:00 AM 27.0 °F 21.6 °F 23.0 °F 85% 29.37 in - WSW 4.6 mph - N/A   Unknown
8:00 AM 26.6 °F - 22.6 °F 85% 29.33 in - SSW 2.3 mph - N/A   Unknown
10:00 AM 26.4 °F 22.4 °F 22.6 °F 86% 29.29 in - SW 3.5 mph - N/A   Unknown
11:00 AM 26.6 °F 22.6 °F 22.8 °F 86% 29.29 in - WSW 3.5 mph - N/A   Unknown
12:00 PM 26.8 °F - 24.1 °F 90% 29.27 in - WSW 1.2 mph - N/A   Unknown
1:00 PM 27.3 °F 23.4 °F 24.4 °F 89% 29.26 in - SW 3.5 mph - N/A   Unknown
2:00 PM 27.3 °F 20.9 °F 25.0 °F 91% 29.26 in - SW 5.8 mph - N/A   Unknown
3:00 PM 27.5 °F 19.3 °F 25.2 °F 91% 29.25 in - SW 8.1 mph - N/A   Unknown
4:00 PM 28.0 °F 22.8 °F 25.3 °F 90% 29.28 in - SW 4.6 mph - N/A   Unknown
5:00 PM 28.2 °F 20.2 °F 26.2 °F 92% 29.31 in - SW 8.1 mph - N/A   Unknown
6:00 PM 29.1 °F 22.1 °F 26.8 °F 91% 29.34 in - WSW 6.9 mph - N/A   Unknown
7:00 PM 29.5 °F 21.1 °F 26.4 °F 88% 29.36 in - SW 9.2 mph - N/A   Unknown
8:00 PM 31.3 °F 23.3 °F 25.9 °F 80% 29.40 in - SW 9.2 mph 17.3 mph N/A   Unknown
9:00 PM 31.3 °F 25.6 °F 24.6 °F 76% 29.45 in - WSW 5.8 mph - N/A   Unknown
10:00 PM 31.8 °F 24.6 °F 22.6 °F 69% 29.49 in - WSW 8.1 mph - N/A   Unknown
11:00 PM 31.3 °F 23.9 °F 19.4 °F 61% 29.52 in - WSW 8.1 mph - N/A   Unknown